Regional Weather Roundup
Issued by NWS Upton, NY

Current Version | Previous Version | Text Only | Print | Product List | Glossary On
Versions: 1 2 3 4 5 6 7 8 9 10 11 12 13 14 15 16 17 18 19 20 21 22 23 24 25 26 27
000
ASUS41 KOKX 161405
RWROKX

REGIONAL WEATHER ROUNDUP
NATIONAL WEATHER SERVICE NEW YORK NY
1000 AM EDT WED APR 16 2014

NOTE: "FAIR" INDICATES FEW OR NO CLOUDS BELOW 12,000 FEET WITH NO
SIGNIFICANT WEATHER AND/OR OBSTRUCTIONS TO VISIBILITY.

NYZ071-072-176-178-NJZ106-104-161500-
NEW YORK CITY METRO AREA


CITY           SKY/WX    TMP DP  RH WIND       PRES   REMARKS
CENTRAL PARK   SUNNY     34  15  46 VRB6      30.33R WCI  29
LAGUARDIA APRT MOSUNNY   35  15  44 N17G26    30.31R WCI  25
KENNEDY INTL   MOSUNNY   37  16  42 NW17      30.31R WCI  27
NEWARK/LIBERTY MOSUNNY   37  19  48 NW18      30.32R WCI  27
TETERBORO      SUNNY     37  16  42 N16       30.31R WCI  28
$$

NYZ177-179-078>081-161500-
LONG ISLAND NEW YORK

CITY           SKY/WX    TMP DP  RH WIND       PRES   REMARKS
FARMINGDALE    SUNNY     35  19  52 N13G20    30.30R WCI  26
ISLIP          MOSUNNY   36  20  52 N21G29    30.25R WCI  25
SHIRLEY        SUNNY     35  18  49 N23G31    30.28R WCI  23
WESTHAMPTON    SUNNY     36  17  46 NW23G33   30.27R WCI  24
MONTAUK POINT    N/A     37  20  50 N14       30.25  WCI  28
$$

NYZ052-065-067-161500-
HUDSON VALLEY

CITY           SKY/WX    TMP DP  RH WIND       PRES   REMARKS
WHITE PLAINS   SUNNY     32  18  56 NW18G26   30.28R WCI  20
NEWBURGH       SUNNY     32  18  55 N12G23    30.30R WCI  23
MONTGOMERY     SUNNY     34  18  52 N14G21    30.30R WCI  25
POUGHKEEPSIE   SUNNY     35  19  52 N9        30.31R WCI  28
ALBANY         MOSUNNY   30  11  45 NW20G26   30.34R WCI  17
$$

NJZ001-105-106-008-010-013-015-019>022-104-161500-
NEW JERSEY

CITY           SKY/WX    TMP DP  RH WIND       PRES   REMARKS
NEWARK/LIBERTY MOSUNNY   37  19  48 NW18      30.32R WCI  27
TETERBORO      SUNNY     37  16  42 N16       30.31R WCI  28
CALDWELL       SUNNY     35  18  49 VRB6      30.33R WCI  30
MORRISTOWN     MOSUNNY   34  18  51 N12G24    30.33R WCI  25
SOMERVILLE     NOT AVBL
LINDEN         FAIR      37  21  53 NW14G20   30.35R WCI  28
SUSSEX         SUNNY     34  19  54 NW12G22   30.32R WCI  25
ANDOVER          N/A     33  19  56 N9        30.33R WCI  25
TRENTON        SUNNY     35  15  44 N14G28    30.33R WCI  26
MILLVILLE      SUNNY     36  17  46 NW16G24   30.35R WCI  26
ATLANTIC CITY  SUNNY     36  19  50 N16       30.32R WCI  26
WRIGHTSTOWN    NOT AVBL
TOMS RIVER     SUNNY     36  21  55 N6G18     30.33R WCI  31
BELMAR         SUNNY     36  18  48 NW17      30.31R WCI  25
$$

PAZ047>061-062-071-161500-
EASTERN PENNSYLVANIA

CITY           SKY/WX    TMP DP  RH WIND       PRES   REMARKS
PHILADELPHIA   SUNNY     36  12  37 NW21G30   30.37R WCI  25
ALLENTOWN      SUNNY     33  16  49 N17G23    30.37R WCI  22
SCRANTON       CLOUDY    27  16  63 N15G23    30.37R WCI  15
$$

CTZ002-004>006-009-010-012-RIZ004-006-007-MAZ004-011-015-161500-
SOUTHERN NEW ENGLAND
 IN CT

CITY           SKY/WX    TMP DP  RH WIND       PRES   REMARKS
BRADLEY INTL   MOSUNNY   33  12  41 NW20G26   30.27R WCI  21
HARTFORD       SUNNY     34  12  40 N17G24    30.28R WCI  23
DANBURY        SUNNY     31  16  54 N14G24    30.30R WCI  21
WTRBRY/OXFORD  SUNNY     30  12  47 N17G35    30.28R WCI  18
BRIDGEPORT     SUNNY     35  17  47 N21G29    30.29R WCI  24
MERIDEN        SUNNY     34  16  47 NW17G30   30.28R WCI  23
NEW HAVEN      SUNNY     36  17  46 N13G24    30.27R WCI  27
CHESTER        FAIR      32  16  51 N17G26    30.25R WCI  21
GROTON         SUNNY     35  20  54 N23G31    30.24R WCI  23
WILLIMANTIC    SUNNY     34  15  46 N18G29    30.26R WCI  23

 IN RI

CITY           SKY/WX    TMP DP  RH WIND       PRES   REMARKS
PROVIDENCE     MOSUNNY   35  19  52 N18G25    30.23R WCI  24
BLOCK ISLAND   SUNNY     36  18  48 N20G26    30.22R WCI  25
WESTERLY       SUNNY     35  15  44 NW20G29   30.24R WCI  24

 IN MA

CITY           SKY/WX    TMP DP  RH WIND       PRES   REMARKS
BOSTON         MOSUNNY   35  19  52 NW22G28   30.24R WCI  23
WORCESTER      SUNNY     28  15  58 NW22      30.19R WCI  14
WESTFIELD      SUNNY     33  13  43 NW20G32   30.26R WCI  21
PROVINCETOWN   SUNNY     34  23  64 MISG      30.20R
NANTUCKET      CLOUDY    37  26  64 N22G39    30.16R WCI  26
$$

ANZ330-335-338-340-345-350-353-355-161500-
COASTAL MARINE OBSERVATIONS


STATION/POSITION TIME  SKY/WX   TEMP    WIND        PRES    VSBY  WAVE
                                AIR SEA DIR/SP/G                  HT/PER
                 (UTC)          (F)     (DEG/KT/KT) (MB)    (MI)  (FT/S)
NY HARB ENTRANCE 1400            34 42  340/ 21/ 25 1025.4
4S FIRE IS       1300               43                N/A           4/11
23SW MTP         1400            34 41  330/ 19/ 23 1023.3          6/10
HUDSON CANYON    1300            37 45  350/ 25     1021.7         11/ 7
EXECUTION ROCKS  1400            35 42  340/ 16/ 19   N/A
WESTERN LI SOUND 1400            33     330/ 16/ 21   N/A           1
CENTRAL LI SOUND 1300            34 41  330/ 21/ 27   N/A           3/ 4
EASTERN LI SOUND NOT AVBL
ROBBINS REEF     1400            33     330/ 17/ 24   N/A
$$


>>>>>>>>>>>>>>>>>>>>>>>>>>>> KEY <<<<<<<<<<<<<<<<<<<<<<<<<<<
>                                                          <
>     SKY/WX - SKY CONDITION/PRESENT WEATHER               <
>     TMP    - TEMPERATURE IN FAHRENHEIT                   <
>     DP     - DEWPOINT IN FAHRENHEIT                      <
>     RH     - RELATIVE HUMIDITY IN PERCENT                <
>     WIND   - DIRECTION AND SPEED IN MPH                  <
>     PRES   - MEAN SEA LEVEL PRESSURE IN INCHES OF HG     <
>     WCI    - WIND CHILL INDEX                            <
>     VSB    - VISIBILITY IN MILES                         <
>     HX     - HEAT INDEX                                  <
>     TC     - TEMPERATURE IN CELSIUS                      <
>     VRB    - VARIABLE WIND DIRECTION                     <
>                                                          <
>>>>>>>>>>>>>>>>>>>>>>>>>>>> KEY <<<<<<<<<<<<<<<<<<<<<<<<<<<





USA.gov is the U.S. government's official web portal to all federal, state and local government web resources and services.